Location: Hepcat Sky Observatory
(29.9800°N, 95.6500°W)
Time: 14:07:36
(UTC-06:00)

Daily predictions for brighter satellites

Satellite Brightness Start Highest point End
(mag) Time Altitude Azimuth Time Altitude Azimuth Time Altitude Azimuth
Cosmos 1980 3.8 18:04:59 10° S 18:10:32 60° ESE 18:16:07 10° NNE
Cosmos 2228 Rocket 3.1 18:06:44 10° N 18:11:07 66° E 18:15:31 10° SSE
CZ-4 R/B 4.4 18:08:32 10° SSE 18:12:40 71° ENE 18:16:47 10° N
Intelsat 5-1 Rocket 2.8 18:11:15 10° SW 18:13:22 26° S 18:16:30 10° ESE
Milstar 3 3.0 18:07:43 10° W 18:14:40 75° S 18:21:48 10° ESE
Cosmos 2058 3.7 18:13:57 10° SSE 18:17:35 31° E 18:21:13 10° NNE
Cosmos 389 Rocket 3.7 18:16:46 10° NNW 18:20:12 46° W 18:23:35 10° SSW
COSMOS 2441 4.3 18:15:24 10° SSE 18:20:16 79° ENE 18:25:08 10° N
Cosmos 2333 Rocket 2.3 18:17:20 10° SSW 18:22:59 85° WNW 18:28:39 10° NNE
Atlas Centaur 2 2.4 18:23:20 10° W 18:28:29 52° SSW 18:32:36 10° ESE
Cosmos 2219 Rocket 3.2 18:30:58 10° SW 18:36:24 47° WNW 18:41:50 10° N
Cosmos 1340 Rocket 3.0 18:36:28 10° SSE 18:40:16 46° E 18:44:03 10° NNE
BREEZE-M DEB (TANK) 4.3 18:40:26 10° WNW 18:41:35 11° NW 18:42:33 10° NNW
Cosmos 1356 Rocket 4.5 18:38:33 10° SE 18:41:44 23° E 18:43:35 17° NE
Cosmos 2151 3.1 18:39:13 10° S 18:43:25 79° W 18:47:38 10° N
Cosmos 540 Rocket 3.7 18:39:21 10° SSW 18:44:29 73° WNW 18:49:39 10° NNE
Abrixas 3.6 18:42:34 10° WSW 18:45:18 37° NW 18:47:20 16° NNE
Cosmos 2278 Rocket 2.5 18:42:40 10° N 18:48:03 43° ENE 18:53:24 10° SE
SL-14 R/B 3.7 18:45:08 10° SSW 18:48:59 64° W 18:52:54 10° N
Cosmos 1515 Rocket 4.3 18:46:23 10° NNW 18:50:46 58° W 18:55:06 10° S
Cosmos 1626 2.9 18:47:39 10° SSE 18:50:57 31° E 18:52:36 21° NE
Cosmos 1805 Rocket 3.7 18:47:20 10° SSE 18:51:37 50° E 18:55:56 10° NNE
USA 215 3.7 18:45:46 10° ESE 18:51:45 40° NE 18:57:45 10° NNW
Cosmos 1484 Rocket 4.0 18:50:15 10° S 18:53:58 45° W 18:57:45 10° NNW
Aureole 1 Rocket 4.5 18:54:46 10° SSE 18:58:30 25° E 18:59:15 24° E
Cosmos 1844 3.8 18:53:22 10° NNW 18:59:09 81° WSW 19:04:56 10° SSE
Cosmos 1151 Rocket 3.3 18:55:53 10° NNW 19:00:08 69° W 19:04:23 10° S
Haruka 3.6 18:58:13 10° W 19:02:12 82° N 19:09:15 22° E
NOAA 12 4.0 18:57:04 10° SSE 19:02:14 69° ENE 19:07:27 10° N
SEDSat Delta rocket 3.7 19:00:47 10° W 19:06:17 64° SSW 19:09:29 21° ESE
ALOS 2.9 19:02:27 10° SE 19:06:33 32° ENE 19:10:40 10° N
Cosmos 2237 Rocket 3.3 19:01:49 10° SW 19:07:07 44° WNW 19:12:29 10° N
BREEZE-M DEB (TANK) 4.3 19:04:35 10° S 19:07:50 26° ESE 19:08:58 25° E
Cosmos 1125 Rocket 3.4 19:02:56 10° NNW 19:08:09 90° W 19:13:20 10° SSE
SL-16 R/B 2.1 19:06:03 10° SSW 19:11:41 78° ESE 19:16:18 16° NNE
ATLAS 2A CENTAUR R/B 3.5 19:10:07 10° SSE 19:11:10 13° SE 19:11:10 13° SE
Spot 2 Rocket 4.0 19:07:29 10° SE 19:12:01 35° ENE 19:16:33 10° N
Cosmos 1300 3.8 19:09:01 10° NNW 19:12:41 45° W 19:16:21 10° SSW
Cosmos 1726 3.5 19:10:50 10° NNW 19:14:23 40° W 19:17:56 10° SSW
Sich 1 3.0 19:11:13 10° S 19:15:34 61° E 19:17:57 26° NNE
BREEZE-M DEB (TANK) 3.6 19:14:46 10° W 19:15:43 21° NW 19:15:43 21° NW
Hubble Space Telescope 2.3 19:13:11 10° W 19:16:52 31° SSW 19:19:11 18° SSE
Cosmos 1633 Rocket 3.0 19:14:24 10° S 19:18:42 57° E 19:20:05 38° NE
FREGAT/IRIS 2.5 19:16:01 10° S 19:19:03 85° WSW 19:20:08 37° NNW
Cosmos 1538 Rocket 3.9 19:14:01 10° S 19:19:14 75° ESE 19:22:42 22° NNE
OTV 4 2.3 19:19:11 10° NW 19:20:41 22° NNW 19:20:41 22° NNW
Lacrosse 5 rocket 3.6 19:19:06 10° N 19:19:24 11° N 19:19:24 11° N
Cosmos 2297 4.0 19:21:44 10° N 19:27:02 42° ENE 19:27:02 42° ENE
SL-19 R/B 4.3 19:21:20 10° SSE 19:27:25 67° ENE 19:33:07 10° N
Resurs 01 Rocket 3.7 19:23:47 10° SSE 19:31:56 13° N 19:32:24 10° N
USA 229 DEB 3.7 19:22:44 10° S 19:29:22 57° ESE 19:31:47 38° ENE
USA 229 3.7 19:22:51 10° S 19:29:29 56° ESE 19:31:49 39° ENE
Cosmos 1184 Rocket 4.0 19:27:59 10° S 19:30:01 34° S 19:30:01 34° S
OAO 3 Rocket 3.9 19:30:01 10° WNW 19:34:42 49° SSW 19:36:25 33° SSE
Helios 1B rocket 3.6 19:39:16 31° S 19:39:16 31° S 19:41:34 10° S
Centaur AC-119 2.9 19:40:40 10° WSW 19:42:54 50° S 19:42:54 50° S
Iridium 4 Rocket 3.1 19:40:22 10° S 19:44:57 79° SSE 19:44:57 79° SSE
SJ-6B 4.3 19:41:40 10° SSW 19:45:25 38° W 19:49:15 10° NNW
Cosmos 1461 4.2 19:42:04 10° SW 19:46:01 37° WNW 19:47:02 32° NNW
Cosmos 1707 Rocket 3.7 19:41:46 10° N 19:46:04 71° W 19:50:22 10° S
FengYun 1-2 T 4.2 19:43:08 10° SSE 19:48:45 86° WSW 19:54:19 10° NNW
H-2A ROCKET BODY 2.5 19:43:22 10° W 20:01:54 82° S 20:02:29 73° ESE
FENGYUN 3A 3.9 19:57:23 10° S 20:02:41 65° WSW 20:08:01 10° NNW
Cosmos 1603 4.4 20:10:10 10° SSW 20:14:05 47° SSW 20:14:05 47° SSW
Atlas Centaur 2 4.1 20:14:36 10° WSW 20:16:30 13° SW 20:16:30 13° SW
USA 215 4.0 20:32:58 40° SSW 20:34:35 47° SW 20:40:51 10° NW
Milstar 3 4.1 20:51:35 10° W 20:57:25 37° SSW 20:57:25 37° SSW
